Regional Weather Roundup
Issued by NWS

Home | Current Version | Previous Version | Text Only | Print | Product List | Glossary On
Versions: 1 2 3 4 5 6 7 8 9 10 11 12 13 14 15 16 17 18 19 20 21 22 23 24 25 26 27 28 29 30 31 32 33 34 35 36 37 38 39 40 41 42 43 44 45 46 47 48 49 50
000
ASUS43 KMKX 220521
RWRWI

WISCONSIN REGIONAL WEATHER ROUNDUP
NATIONAL WEATHER SERVICE MILWAUKEE/SULLIVAN WI
1200 AM CDT WED AUG 22 2018

NOTE: "FAIR" INDICATES FEW OR NO CLOUDS BELOW 12,000 FEET WITH NO
SIGNIFICANT WEATHER AND/OR OBSTRUCTIONS TO VISIBILITY.

WIZ001-002-006>008-014>016-023>028-220600-
NORTHWEST WISCONSIN

CITY           SKY/WX    TMP DP  RH WIND       PRES   REMARKS
SUPERIOR ARPT  FAIR      56  50  78 NW9       30.12R
ASHLAND        FAIR      54  50  86 SW8       30.09F
HAYWARD        FAIR      50  50 100 CALM      30.13S
SIREN          NOT AVBL
CUMBERLAND     FAIR      54  52  94 CALM      30.15S
RICE LAKE      FAIR      55  35  47 CALM      30.15S
CHETEK         FAIR      54  54 100 CALM      30.15R
LADYSMITH      FAIR      58  55  90 MISG      30.15R
EAU CLAIRE     FAIR      57  53  86 S3        30.14R
MENOMONIE      FAIR      59  55  85 W5        30.16R
NEW RICHMOND   FAIR      56  54  94 SW3       30.16S
OSCEOLA        FAIR      53  52  95 CALM      30.19S
$$

WIZ003>005-009-010-017-018-220600-
NORTH CENTRAL WISCONSIN

CITY           SKY/WX    TMP DP  RH WIND       PRES   REMARKS
MANITOWISH WTR MOCLDY    46  46 100 CALM      30.10S FOG
ARBOR VITAE    FAIR      52  50  94 CALM      30.10S
WOODRUFF       FAIR      52  50  94 CALM      30.10S
RHINELANDER    FAIR      56  52  86 W8        30.10F
EAGLE RIVER    FAIR      52  51  97 W5        30.08S
LAND O LAKES   FAIR      48  47  97 CALM      30.10S
PHILLIPS       FAIR      53  53 100 CALM      30.11S
TOMAHAWK       FAIR      46  45  97 W3        30.12R
MEDFORD        FAIR      51  49  93 W6        30.12S
MERRILL        FAIR      47  47 100 CALM      30.11S
$$

WIZ029-030-035-036-043>047-220600-
CENTRAL WISCONSIN

CITY           SKY/WX    TMP DP  RH WIND       PRES   REMARKS
WAUSAU         FAIR      56  52  86 NW5       30.09S
MOSINEE        FAIR      54  50  87 W5        30.12S
MARSHFIELD     FAIR      54  51  90 NW8       30.11F
STEVENS POINT  FAIR      55  53  94 W3        30.11F
WAUPACA        FAIR      57  54  88 W5        30.10S
WAUTOMA        FAIR      55  52  89 W3        30.11R
WISC RAPIDS    FAIR      55  49  80 NW3       30.12S
CAMP DOUGLAS   FAIR      52  52  99 W5        30.12S
$$

WIZ011>013-019>022-031-037>040-048>050-220600-
NORTHEAST WISCONSIN

CITY           SKY/WX    TMP DP  RH WIND       PRES   REMARKS
ANTIGO         FAIR      48  47  98 W3        30.09S
SHAWANO        FAIR      57  51  81 NW6       30.07S
OCONTO         FAIR      55  49  82 NW3       30.05R
STURGEON BAY   FAIR      61  52  72 NW15G21   30.04S
GREEN BAY      FAIR      56  51  84 NW7       30.05F
MANITOWOC      FAIR      58  51  78 NW8       30.05R
APPLETON       FAIR      54  46  76 NW9       30.07R
CLINTONVILLE   FAIR      56  50  80 W3        30.08R
OSHKOSH        FAIR      61  52  72 NW9       30.07S
$$

WIZ032>034-041-042-053>061-220600-
SOUTHWEST WISCONSIN

CITY           SKY/WX    TMP DP  RH WIND       PRES   REMARKS
LA CROSSE      FAIR      60  56  86 N5        30.15R
SPARTA         FAIR      46  46 100 CALM      30.16R
VIROQUA        FAIR      55  55 100 NW5       30.16R
BOSCOBEL       FAIR      55  53  93 CALM      30.14S FOG
PRAIRIE DU CHI FAIR      56  55  95 CALM      30.14S
PLATTEVILLE    FAIR      57  57 100 N7        30.14S
$$

WIZ056-057-062-063-064-067-068-220600-
SOUTH CENTRAL WISCONSIN

CITY           SKY/WX    TMP DP  RH WIND       PRES   REMARKS
REEDSBURG      FAIR      55  54  97 W6        30.13R
BARABOO/DELLS  FAIR      55  52  90 CALM      30.12S
LONE ROCK      FAIR      56  55  97 CALM      30.12R
MINERAL POINT  FAIR      57  57 100 NW6       30.12F
MADISON        FAIR      58  52  80 N7        30.09S
MIDDLETON        N/A     57  54  89 NW3       30.11S
WATERTOWN      FAIR      57  57  99 NW7       30.09R
MONROE         FAIR      58  53  83 NW7       30.10S
JANESVILLE     FAIR      59  54  82 N3        30.09R
$$

WIZ051-052-058>065-066-070>072-220600-
SOUTHEAST WISCONSIN

CITY           SKY/WX    TMP DP  RH WIND       PRES   REMARKS
MILWAUKEE      FAIR      65  54  67 NW10      30.03S
WAUKESHA       FAIR      57  50  77 NW8       30.08R
MILWAUKEE/TIMM FAIR      59  48  67 NW8       30.06S
RACINE         FAIR      65  54  67 NW8       30.05S
BURLINGTON     FAIR      60  54  80 NW7       30.06S
KENOSHA        FAIR      63  57  81 NW8       30.04S
FOND DU LAC    FAIR      57  51  80 NW9       30.08R
SHEBOYGAN      FAIR      59  50  72 NW9       30.04S
WEST BEND      FAIR      55  52  88 NW6       30.06R
JUNEAU         FAIR      57  52  82 NW6       30.09S
$$

LSZ147-162-220600-
LAKE SUPERIOR

STATION/POSITION TIME  TEMP    WIND        PRES    WAVE
                       AIR SEA DIR/SP/G            HT/PER
                 (UTC) (F)     (DEG/KT/KT) (MB)    (FT/S)
W MID LAKE BUOY  0450   64 64  260/ 10/ 12 1017.0S   1/ 3
DEVILS ISLAND    0400   66     300/ 11/ 12 1018.0S
SAXON HARBOR     0440   57     190/  6/  9 1017.9S
$$

LMZ867-665-643>646-220600-
LAKE MICHIGAN

STATION/POSITION TIME  TEMP    WIND        PRES    WAVE
                       AIR SEA DIR/SP/G            HT/PER
                 (UTC) (F)     (DEG/KT/KT) (MB)    (FT/S)
CHAMBERS ISLAND  0440   62     300/ 10/ 16 1016.6S
S GREEN BAY BUOY 0500   68 74  320/ 17/ 23 1016.9
N MID LAKE BUOY  0500   64 71  340/ 23/ 27 1014.4
NORTHPORT PIER   0440   64     320/ 12/ 15 1015.9S
KEWAUNEE LAKESHO 0454   61     320/  5/  9 1016.0F
SHEBOYGAN LAKESH 0400   63     320/ 14/ 17 1016.5R
PORT WASHINGTON  0430   64     310/  6/  9 1017.9S
ATWATER BUOY     0437   67 74  330/ 16/ 19 1017.1R   5/ 7
MILWAUKEE LAKESH 0500   65     330/ 10/ 15   N/A
S MID LAKE BUOY  0450   71 75  350/ 21/ 25 1015.0R   6/ 7
KENOSHA   LAKESH 0400   68     330/  9/ 11 1016.6
$$

TC  - TEMPERATURE IN CELSIUS
VSB - VISIBILITY IN STATUTE MILES
WCI - WIND CHILL INDEX
HX  - HEAT INDEX




USA.gov is the U.S. government's official web portal to all federal, state and local government web resources and services.